Flag for U.S.A. Weather past 2 weeks in Lancaster, California, U.S.A.

Now
87 °F

Sunny.


Feels Like: 84 °F
Forecast: 71 / 100 °F
Wind: 10 mph from West

Location: Lancaster / Fox Field

Current Time: Sep 14, 2014 at 9:11:56 PM

Latest Report: Sep 14, 2014 at 7:56 PM


Visibility: 10 mi

Pressure: 29.79 "Hg

Humidity: 22%

Dew point: 44 °F

Location of LancasterLocation

Historic Weather in Lancaster — Graph

°F

Lancaster temperature yesterday

Maximum temperature yesterday: 100 °F (at 2:56 PM)
Minimum temperature yesterday: 64 °F (at 4:56 AM)
Average temperature yesterday: 82 °F

Past Weeks' High & Low Weather Summary

 TemperatureHumidityPressure
High100 °F (Sep 13, 2:56 PM)51% (Sep 5, 6:56 AM)30.00 "Hg (Sep 5, 6:56 AM)
Low50 °F (Sep 10, 6:56 AM)4% (Sep 9, 1:56 PM)29.64 "Hg (Sep 3, 3:56 PM)
Average80 °F23%29.82 "Hg
* Reported Aug 30 6:56 PM — Sep 14 6:56 PM, Lancaster, Weather by CustomWeather, © 2014

Note: Actual official high and low records may vary slightly from our data, if they occured in-between our weather recording intervals... More about our weather records

Advertising

Lancaster weather history for previous 24 hours

 ConditionsComfort  
Time TempWeatherWind HumidityBarometerVisibility
6:56 PM
Sep 14
93 °FSunny.14 mph18%29.77 "Hg10 mi
5:56 PM97 °FSunny.17 mph16%29.75 "Hg10 mi
4:56 PM99 °FPartly sunny.5 mph14%29.75 "Hg10 mi
3:56 PM97 °FSunny.No wind15%29.75 "Hg10 mi
2:56 PM100 °FPassing clouds.8 mph14%29.76 "Hg10 mi
1:56 PM98 °FSunny.No wind14%29.78 "Hg10 mi
12:56 PM99 °FSunny.7 mph15%29.79 "Hg10 mi
11:56 AM96 °FSunny.5 mph14%29.82 "Hg10 mi
10:56 AM91 °FSunny.3 mph16%29.85 "Hg10 mi
9:56 AM87 °FSunny.No wind19%29.86 "Hg10 mi
8:56 AM81 °FSunny.No wind23%29.86 "Hg10 mi
7:56 AM71 °FSunny.No wind30%29.86 "Hg10 mi
6:56 AM66 °FClear.7 mph36%29.85 "Hg10 mi
5:56 AM63 °FClear.7 mph37%29.83 "Hg10 mi
4:56 AM65 °FClear.No wind33%29.82 "Hg10 mi
3:56 AM65 °FClear.5 mph36%29.81 "Hg10 mi
2:56 AM67 °FClear.No wind33%29.81 "Hg10 mi
1:56 AM67 °FClear.5 mph35%29.81 "Hg10 mi
12:56 AM77 °FClear.5 mph30%29.80 "Hg10 mi
11:56 PM
Sep 13
80 °FClear.6 mph24%29.79 "Hg10 mi
10:56 PM78 °FClear.6 mph25%29.79 "Hg10 mi
9:56 PM80 °FClear.9 mph23%29.79 "Hg10 mi
Weather by CustomWeather, © 2014

See weather overviewHow to use our weather pages